This demonstration page uses our WeatherBlox Daily Observations layout. Learn more.

Left ArrowRight Arrow

39.01783, -85.05884

Hourly Observations for March 23, 2020

Temp ( °F °C ) Dew Point ( °F °C ) Humidity (%) Winds ( mph kmh ) Pressure ( in mb ) Visibility ( mi km ) Precip ( " mm )
12:30 am 00:30 Cloudy 44 6.7 34 1.1 68 68 SE 12 19 30.17 1022 10 16 0.00 0.00
12:52 am 00:52 Cloudy 44 6.7 35 1.7 71 71 SSE 12 19 30.15 1021 10 16 0.00 0.00
1:20 am 01:20 Cloudy with Haze 43 6.1 37 2.8 80 80 SSE 8 13 30.16 1021 5 8 0.00 0.00
1:52 am 01:52 Cloudy 42 5.6 38 3.3 85 85 SSE 9 15 30.12 1020 7 11 0.00 0.00
2:35 am 02:35 Cloudy 43 6.1 38 3.3 82 82 SSE 7 11 30.13 1020 10 16 0.00 0.00
2:52 am 02:52 Cloudy 43 6.1 39 3.9 86 86 SE 6 9 30.10 1019 9 14 0.00 0.00
3:52 am 03:52 Cloudy 43 6.1 40 4.4 89 89 S 6 9 30.06 1018 8 13 0.00 0.00
4:52 am 04:52 Cloudy with Mist and Fog 43 6.1 41 5 93 93 S 3 6 30.03 1017 2 2 0.00 0.00
5:30 am 05:30 Cloudy with Mist and Fog 43 6.1 41 5 93 93 Calm 30.04 1017 2 2 0.00 0.00
5:52 am 05:52 Cloudy with Mist and Fog 43 6.1 41 5 93 93 NW 3 6 30.04 1017 1 2 0.00 0.00
6:52 am 06:52 Cloudy with Light Rain 43 6.1 41 5 93 93 W 5 7 30.06 1018 1 1 0.00 0.00
7:52 am 07:52 Cloudy with Drizzle 43 6.1 41 5 93 93 W 7 11 30.08 1019 1 1 0.00 0.00
8:34 am 08:34 Cloudy with Mist and Fog 43 6.1 41 5 93 93 WNW 10 17 30.11 1020 3 4 0.00 0.00
8:52 am 08:52 Cloudy with Mist and Fog 43 6.1 40 4.4 89 89 NW 15 24 30.10 1019 3 4 0.00 0.00
9:04 am 09:04 Cloudy with Mist and Fog 43 6.1 40 4.4 89 89 NW 12 19 30.12 1020 3 5 0.00 0.00
9:52 am 09:52 Cloudy with Mist and Fog 44 6.7 39 3.9 83 83 NW 10 17 30.11 1020 3 5 0.00 0.00
10:33 am 10:33 Cloudy with Mist and Fog 44 6.7 38 3.3 79 79 NW 12 19 30.14 1021 8 13 0.00 0.00
10:52 am 10:52 Cloudy 44 6.7 38 3.3 79 79 NW 9 15 30.13 1020 10 16 0.00 0.00
11:52 am 11:52 Cloudy 46 7.8 38 3.3 73 73 NW 9 15 30.14 1021 8 13 0.00 0.00
12:52 pm 12:52 Mostly Cloudy 49 9.4 39 3.9 69 69 NNW 10 17 30.13 1020 10 16 0.00 0.00
1:52 pm 13:52 Cloudy 51 10.6 38 3.3 61 61 NW 12 19 30.13 1020 10 16 0.00 0.00
2:52 pm 14:52 Mostly Cloudy 53 11.7 38 3.3 57 57 W 12 19 30.11 1020 10 16 0.00 0.00
3:09 pm 15:09 Mostly Cloudy 53 11.7 38 3.3 57 57 NW 13 20 30.11 1020 10 16 0.00 0.00
3:52 pm 15:52 Partly Cloudy 54 12.2 38 3.3 55 55 WNW 10 17 30.10 1019 10 16 0.00 0.00
4:52 pm 16:52 Mostly Sunny 54 12.2 38 3.3 55 55 WNW 9 15 30.10 1019 10 16 0.00 0.00
5:52 pm 17:52 Mostly Sunny 53 11.7 35 1.7 51 51 NW 8 13 30.11 1020 10 16 0.00 0.00
6:52 pm 18:52 Mostly Sunny 52 11.1 35 1.7 53 53 NW 7 11 30.12 1020 10 16 0.00 0.00
7:52 pm 19:52 Mostly Sunny 48 8.9 36 2.2 63 63 N 7 11 30.13 1020 10 16 0.00 0.00
8:52 pm 20:52 Mostly Clear 45 7.2 36 2.2 71 71 N 10 17 30.15 1021 10 16 0.00 0.00
9:52 pm 21:52 Clear 43 6.1 35 1.7 74 74 N 12 19 30.16 1022 10 16 0.00 0.00
10:52 pm 22:52 Clear 40 4.4 35 1.7 83 83 N 7 11 30.17 1022 10 16 0.00 0.00
11:52 pm 23:52 Clear 39 3.9 34 1.1 82 82 NNE 8 13 30.16 1021 10 16 0.00 0.00

Powered by AerisWeather